Location: Unspecified
(48.5670°N, 0.0000°E)
Time: 11:00:38
(UTC+00:00)

Tiros 1 - Pass Details

Date: 26 October 2020
Orbit: 630 x 664 km, 48.4° (Epoch: 03 December)

Event Time Altitude Azimuth Distance (km) Brightness Sun altitude
Exits shadow 04:59:11 20° 224° (SW) 1,447 8.5 -16.8°
Maximum altitude 05:02:06 51° 156° (SSE) 795 7.7 -16.3°
Drops below altitude 10° 05:06:35 10° 81° (E) 2,010 11.0 -15.6°
Sets 05:08:57 0° 77° (ENE) 2,922 12.1 -15.2°
